Location: Unspecified
(0.0000°N, 0.0000°E)
Time: 23:33:11
(UTC+00:00)

GONETS M 08 (M18) - Pass Details

Date: 25 May 2026
Orbit: 1470 x 1518 km, 82.5° (Epoch: 7 June)

Event Time Altitude Azimuth Distance (km) Brightness Sun altitude
Rises 04:18:38 0° 167° (SSE) 4,649 ? -22.9°
Reaches altitude 10° 04:21:47 10° 160° (SSE) 3,671 ? -22.1°
Maximum altitude 04:29:55 41° 93° (E) 2,085 ? -20.3°
Drops below altitude 10° 04:38:00 10° 27° (NNE) 3,671 ? -18.4°
Sets 04:41:06 0° 20° (NNE) 4,649 ? -17.7°
